Location: Centerville
(32.8776°N, 96.6203°W)
Time: 22:31:12
(UTC+00:00)

Cosmos 2369 Rocket - Pass Details

Date: 17 June 2021
Orbit: 827 x 854 km, 71.0° (Epoch: 01 August)

Event Time Altitude Azimuth Distance (km) Brightness Sun altitude
Rises 08:04:33 0° 340° (NNW) 3,426 6.0 -29.2°
Reaches altitude 10° 08:07:01 10° 342° (NNW) 2,486 5.2 -28.9°
Maximum altitude 08:12:45 82° 69° (ENE) 864 2.1 -28.4°
Enters shadow 08:12:52 81° 93° (E) 865 2.1 -28.4°
